DW4326 Weather Reports


time (UTC)temp
C
wind
direction
speed
KPH
gust
KPH
rain 1hr
cm
rain 24hr
cm
rain mn
cm
humidity
%
barometer
mb
20260906223804 16 310 0.0 0.0 0.00 1.40 0.15 78 1015.8
20260906222306 17 310 0.0 0.0 0.00 1.40 0.15 76 1015.7
20260906220804 17 316 0.0 0.0 0.00 1.40 0.15 73 1015.7
20260906215306 17 294 0.0 0.0 0.00 1.40 0.15 77 1015.5
20260906213801 17 344 0.0 0.0 0.00 1.40 0.15 74 1015.6
20260906213006 18 351 0.0 0.0 0.00 1.40 0.15 68 1015.5
20260906210802 18 351 0.0 0.0 0.00 1.42 0.15 66 1015.4
20260906210659 19 350 0.0 0.0 0.00 1.42 0.15 65 1015.2
20260906204459 20 321 0.0 0.0 0.00 1.42 0.15 61 1015.3
20260906202301 19 311 0.0 0.0 0.00 1.42 0.15 60 1015.2
20260906200800 20 0 0.0 0.0 0.00 1.42 0.15 60 1015.1
20260906195301 20 24 0.0 0.0 0.00 1.42 0.15 58 1015.0
20260906193800 20 309 0.0 0.0 0.00 1.42 0.15 57 1015.1
20260906192301 20 307 0.0 6.4 0.00 1.42 0.15 58 1015.0
20260906190800 20 259 0.0 9.7 0.00 1.42 0.15 57 1015.1
20260906190000 20 69 1.6 12.9 0.00 1.42 0.15 54 1015.1
20260906183801 21 265 1.6 12.9 0.00 1.42 0.15 61 1015.0
20260906182258 21 355 1.6 11.3 0.00 1.42 0.15 58 1015.2
20260906180756 21 263 1.6 9.7 0.00 1.42 0.15 61 1015.3
20260906175257 20 300 0.0 4.8 0.00 1.42 0.15 64 1015.5
20260906173756 20 321 0.0 6.4 0.00 1.42 0.15 68 1015.6
20260906172951 20 265 0.0 8.0 0.00 1.42 0.15 65 1015.6
20260906170756 20 213 0.0 6.4 0.00 1.42 0.15 68 1015.7
20260906165257 20 24 1.6 14.5 0.00 1.42 0.15 74 1015.7
20260906163754 20 319 1.6 9.7 0.00 1.42 0.15 74 1016.2
20260906162251 20 333 1.6 11.3 0.00 1.42 0.15 74 1016.3
20260906160751 18 319 0.0 0.0 0.00 1.42 0.15 75 1016.4
20260906155251 18 259 0.0 0.0 0.00 1.42 0.15 79 1016.5
20260906153750 18 302 0.0 11.3 0.00 1.42 0.15 78 1016.7
20260906152249 17 350 0.0 8.0 0.00 1.42 0.15 86 1016.7
20260906150751 17 281 0.0 6.4 0.00 1.42 0.15 83 1016.5
20260906145251 17 319 0.0 8.0 0.00 1.45 0.15 84 1016.5
20260906143749 17 311 0.0 14.5 0.00 1.45 0.15 87 1016.4
20260906142248 16 20 1.6 14.5 0.00 1.45 0.15 90 1016.4
20260906140748 16 14 0.0 6.4 0.00 1.45 0.15 91 1016.3
20260906135249 16 127 0.0 1.6 0.00 1.45 0.15 96 1016.2
20260906134435 15 24 0.0 0.0 0.00 1.45 0.15 98 1016.0
20260906132244 15 5 0.0 0.0 0.00 1.45 0.15 97 1016.1
20260906130741 14 0 0.0 0.0 0.00 1.45 0.15 98 1016.1
20260906125241 14 0 0.0 0.0 0.00 1.45 0.15 98 1016.2
20260906124432 13 355 0.0 0.0 0.00 1.45 0.15 98 1016.2
20260906122240 13 355 0.0 0.0 0.00 1.45 0.15 98 1016.0
20260906121350 13 53 0.0 0.0 0.03 1.45 0.15 98 1015.7
20260906120756 13 53 0.0 0.0 0.00 1.45 0.15 98 1015.9
20260906113737 13 53 0.0 0.0 0.03 1.45 0.15 98 1015.7
20260906112236 13 53 0.0 0.0 0.03 1.45 0.15 98 1015.5
20260906111433 13 53 0.0 0.0 0.03 1.45 0.15 98 1015.4
20260906105231 13 53 0.0 0.0 0.00 1.42 0.13 98 1015.1
20260906104425 13 53 0.0 0.0 0.00 1.42 0.13 98 1015.1
20260906102928 13 53 0.0 0.0 0.00 1.42 0.13 98 1015.0
20260906101417 13 53 0.0 0.0 0.00 1.42 0.13 98 1014.9
20260906095925 13 53 0.0 0.0 0.00 1.42 0.13 98 1014.9
20260906095135 13 53 0.0 0.0 0.00 1.42 0.13 97 1014.8
20260906092225 13 53 0.0 0.0 0.00 1.42 0.13 97 1014.7
20260906091436 13 57 0.0 0.0 0.00 1.42 0.13 97 1014.3
20260906085224 13 57 0.0 0.0 0.00 1.42 0.13 97 1014.2
20260906083722 13 57 0.0 0.0 0.00 1.42 0.13 98 1014.2
20260906082221 13 57 0.0 0.0 0.03 1.42 0.13 97 1014.3
20260906081406 13 57 0.0 0.0 0.03 1.42 0.13 97 1014.0
20260906075218 13 57 0.0 0.0 0.05 1.42 0.13 97 1014.0
20260906074411 13 57 0.0 0.0 0.05 1.42 0.13 97 1014.0
20260906072213 13 57 0.0 0.0 0.05 1.40 0.10 97 1014.0
20260906070713 13 57 0.0 0.0 0.05 1.40 0.10 97 1014.0
20260906070617 13 57 0.0 0.0 0.05 1.37 0.08 97 1013.9
20260906063714 13 57 0.0 0.0 0.08 1.37 0.08 97 1014.0
20260906062214 13 57 0.0 0.0 0.05 1.35 0.05 97 1013.9
20260906060712 13 57 0.0 0.0 0.05 1.35 0.05 97 1013.9
20260906055214 14 57 0.0 0.0 0.03 1.32 0.05 97 1013.9
20260906053712 14 57 0.0 0.0 0.00 1.30 0.00 97 1013.9
20260906052906 14 57 0.0 0.0 0.00 1.30 0.00 97 1014.0
20260906051358 14 58 0.0 0.0 0.00 1.30 0.00 97 1014.0
20260906045923 14 58 0.0 0.0 0.03 1.30 0.00 97 1014.0
20260906043706 14 58 0.0 0.0 0.05 1.30 0.00 97 1013.9
20260906042206 14 58 0.0 0.0 0.10 1.30 0.00 97 1014.0
20260906040706 14 58 0.0 0.0 0.15 1.30 0.00 97 1014.3
20260906035202 14 58 0.0 0.0 0.33 1.27 1.27 97 1014.0
20260906034350 15 190 0.0 0.0 0.53 1.24 1.24 96 1014.1
20260906032159 15 190 0.0 0.0 0.64 1.19 1.22 96 1014.0
20260906030658 15 190 0.0 0.0 0.69 1.14 1.14 96 1013.9
20260906025156 15 190 0.0 0.0 0.51 0.94 0.94 96 1013.9
20260906023655 15 190 0.0 0.0 0.28 0.71 0.71 96 1013.9
20260906022152 15 190 0.0 0.0 0.13 0.56 0.56 96 1013.8
20260906020652 15 189 0.0 0.0 0.03 0.46 0.46 96 1013.7
20260906015153 15 298 0.0 0.0 0.00 0.43 0.43 96 1013.8
20260906014348 15 301 0.0 0.0 0.03 0.43 0.43 96 1013.5
20260906012150 16 301 0.0 0.0 0.05 0.43 0.43 96 1013.5
20260906010648 16 301 0.0 0.0 0.08 0.43 0.43 96 1013.4
20260906005148 16 301 0.0 0.0 0.08 0.43 0.43 95 1013.4
20260906003648 16 301 0.0 0.0 0.08 0.41 0.41 95 1013.4
20260906002145 16 301 0.0 0.0 0.23 0.38 0.38 94 1013.2
20260906000644 16 301 0.0 0.0 0.30 0.36 0.36 94 1013.3
20260905235144 16 301 0.0 0.0 0.30 0.38 0.36 94 1013.0
20260905233644 16 300 0.0 0.0 0.28 0.36 0.33 93 1012.7
20260905232142 17 313 0.0 0.0 0.10 0.18 0.18 92 1012.6
20260905230643 17 319 0.0 0.0 0.00 0.08 0.05 92 1012.1
20260905225142 17 319 0.0 0.0 0.00 0.08 0.05 92 1012.1